Regional Weather Roundup
Issued by NWS Spokane, WA

Home | Current Version | Previous Version | Text Only | Print | Product List | Glossary On
Versions: 1 2 3 4 5 6 7 8 9 10 11 12 13 14 15 16 17 18 19 20 21 22 23 24 25 26 27 28 29 30 31 32 33 34 35 36 37 38 39 40 41 42 43 44 45 46 47 48 49 50
000
NZUS01 KOTX 271325
RWROTX

Eastern Washington/Northern Idaho Roundup
National Weather Service, Spokane WA
600 AM PDT THU APR 27 2017

Note: "fair" indicated few or no clouds below 12,000 feet with no
significant weather and/or obstructions to visibility.

...Northeast Washington and Northern Idaho Panhandle...

CITY           SKY/WX    TMP DP  RH WIND       PRES   REMARKS
Spokane Intl   MOCLDY    37  29  72 SW16      29.80R
Spokane Downto MOCLDY    38  32  79 SW8       29.82R
Coeur d Alene  PTCLDY    35  32  88 S8        29.82R WCI  29
Deer Park      CLOUDY    36  32  85 SE7       29.80R
Sandpoint      DRIZZLE   37  36  93 S3        29.79R
Bonners Ferry  PTSUNNY   41  36  81 S10       29.73R

...Southeast Washington and southern Idaho Panhandle...

CITY           SKY/WX    TMP DP  RH WIND       PRES   REMARKS
Walla Walla    CLOUDY    43  34  70 S16       29.98R
Pullman/Moscow CLEAR     36  30  79 W13       29.88S
Lewiston       CLOUDY    43  37  79 NE6       29.91R
Lowell           N/A     40  38  93 CALM      29.91R

...Columbia Basin...

CITY           SKY/WX    TMP DP  RH WIND       PRES   REMARKS
Ephrata        PTCLDY    37  25  61 S13       29.84R
Moses Lake     CLEAR     39  29  67 W14       29.86R
Pasco          CLEAR     42  33  70 SW15      29.96R
Richland       SUNNY     42  33  68 SW8       29.96S
Hermiston      CLEAR     43  34  70 SW18G29   29.98R
Pendleton      LGT RAIN  40  31  70 W24G33    29.96R

...East Slopes Cascades...

CITY           SKY/WX    TMP DP  RH WIND       PRES   REMARKS
The Dalles     CLEAR     45  37  73 W15       30.06R
Yakima         CLEAR     35  27  72 N6        29.94S
Ellensburg     CLEAR     39  31  72 W15       29.91R
Stampede Pass  SNOW      29  29 100 W9G26     29.90R VSB 1/2 WCI  20
Wenatchee      CLEAR     41  26  55 NW16      29.86S
Omak           MOCLDY    38  26  62 W6        29.81R
Sunnyside      SUNNY     32  28  86 NE5       29.95R WCI  27

...Southern British Columbia...

CITY           SKY/WX    TMP DP  RH WIND       PRES   REMARKS
Penticton      CLOUDY    46  37  71 W2        29.82R
Castlegar      MOCLDY    39  37  93 VRB2      29.77
Cranbrook      MOCLDY    34  34 100 CALM      29.66R
Osoyoos          N/A     46  32  57 S6          N/A
Creston          N/A     41  39  93 W1          N/A

...Western Montana...

CITY           SKY/WX    TMP DP  RH WIND       PRES   REMARKS
Kalispell      LGT RAIN  38  38 100 SE13      29.68S
Libby            N/A     37  37 100 CALM      29.70R
Missoula       CLOUDY    39  36  89 CALM      29.76R

...Neighboring Cities...

CITY           SKY/WX    TMP DP  RH WIND       PRES   REMARKS
Seattle        CLOUDY    44  38  79 S8        30.05R
Portland       MOCLDY    42  39  89 SW6       30.14R
Boise          PTCLDY    39  33  79 NW9       29.90R
Great Falls    CLOUDY    38  34  85 SW8       29.61R
Calgary        CLOUDY    34  32  93 E3        29.68R FOG



USA.gov is the U.S. government's official web portal to all federal, state and local government web resources and services.